Weather History for Reno - Stead, NV

Change the Weather History Date:

Sunday, June 30, 2013

  Actual Average (KRNO) Record (KRNO)
Temperature  
Mean Temperature 76 °F 72 °F  
Max Temperature 96 °F 89 °F 103 °F (2013)
Min Temperature 57 °F 55 °F 34 °F (1952)
Degree Days  
Heating Degree Days 0 1  
Month to date heating degree days 58  
Since 1 June heating degree days 56  
Since 1 July heating degree days 4924  
Cooling Degree Days 12 7  
Month to date cooling degree days 136  
Year to date cooling degree days 173  
Since 1 June cooling degree days 136  
Growing Degree Days 26 (Base 50)    
Moisture  
Dew Point 43 °F    
Average Humidity 34    
Maximum Humidity 67    
Minimum Humidity 11    
Precipitation  
Precipitation 0.00 in 0.01 in 0.23 in (1987)
Month to date precipitation 0.51  
Year to date precipitation 4.28  
Snow  
Snow 0.00 in 0.00 in 0.00 in ()
Month to date snowfall T  
Since 1 June snowfall T  
Since 1 July snowfall 21.8  
Snow Depth -    
Sea Level Pressure  
Sea Level Pressure 30.12 in    
Wind  
Wind Speed 6 mph (NW)    
Max Wind Speed 18 mph    
Max Gust Speed 26 mph    
Visibility 10 miles    
Events      
T = Trace of Precipitation, MM = Missing Value Source: NWS Daily Summary

Daily Weather History Graph

Daily Weather History Graph

Search for Another Location

Airport:

Trip Planner

Search our weather history database for the weather conditions in past years. The results will help you decide how hot, cold, wet, or windy it might be!

Date:

Astronomy

Jun. 30, 2013 Rise Set
Actual Time 5:35 AM PDT 8:31 PM PDT
Civil Twilight 5:02 AM PDT 9:03 PM PDT
Nautical Twilight 4:21 AM PDT 9:44 PM PDT
Astronomical Twilight 3:34 AM PDT 10:32 PM PDT
Moon 12:35 AM PDT (6/30) 1:52 PM PDT (6/30)
Length of Visible Light 16h 01m
Length of Day
14h 56m
Last Quarter, 44% of the Moon is Illuminated
Jun 30
Last Quarter
Jul 8
New
Jul 15
First Quarter
Jul 22
Full
Jul 29
Last Quarter

Hourly Weather History & Observations

Time (PDT) Temp. Dew Point Humidity Pressure Visibility Wind Dir Wind Speed Gust Speed Precip Events Conditions
12:15 AM 69.8 °F 48.2 °F 46% 30.17 in 10.0 mi WNW 6.9 mph - N/A   Clear
12:35 AM 68.0 °F 48.2 °F 49% 30.17 in 10.0 mi WNW 5.8 mph - N/A   Clear
12:55 AM 68.0 °F 50.0 °F 52% 30.17 in 10.0 mi NNW 5.8 mph - N/A   Clear
1:15 AM 68.0 °F 48.2 °F 49% 30.16 in 10.0 mi WNW 9.2 mph - N/A   Clear
1:35 AM 66.2 °F 48.2 °F 52% 30.16 in 10.0 mi North 4.6 mph - N/A   Clear
1:55 AM 64.4 °F 48.2 °F 56% 30.16 in 10.0 mi North 5.8 mph - N/A   Clear
2:15 AM 62.6 °F 48.2 °F 59% 30.16 in 10.0 mi North 5.8 mph - N/A   Clear
2:35 AM 64.4 °F 48.2 °F 56% 30.16 in 10.0 mi North 5.8 mph - N/A   Clear
2:55 AM 64.4 °F 48.2 °F 56% 30.16 in 10.0 mi NNW 6.9 mph - N/A   Clear
3:15 AM 62.6 °F 48.2 °F 59% 30.15 in 10.0 mi North 6.9 mph - N/A   Clear
3:35 AM 60.8 °F 48.2 °F 63% 30.15 in 10.0 mi NNW 5.8 mph - N/A   Clear
3:55 AM 60.8 °F 48.2 °F 63% 30.15 in 10.0 mi North 5.8 mph - N/A   Clear
4:15 AM 64.4 °F 46.4 °F 52% 30.15 in 10.0 mi NNE 3.5 mph - N/A   Clear
4:35 AM 62.6 °F 48.2 °F 59% 30.15 in 10.0 mi NNW 4.6 mph - N/A   Clear
4:55 AM 59.0 °F 46.4 °F 63% 30.15 in 10.0 mi NW 4.6 mph - N/A   Clear
5:15 AM 57.2 °F 46.4 °F 67% 30.15 in 10.0 mi NNW 8.1 mph - N/A   Clear
5:35 AM 57.2 °F 46.4 °F 67% 30.16 in 10.0 mi North 6.9 mph - N/A   Clear
5:55 AM 59.0 °F 44.6 °F 59% 30.16 in 10.0 mi NNW 4.6 mph - N/A   Clear
6:15 AM 59.0 °F 44.6 °F 59% 30.15 in 10.0 mi North 4.6 mph - N/A   Clear
6:35 AM 60.8 °F 48.2 °F 63% 30.15 in 10.0 mi Calm Calm - N/A   Clear
6:55 AM 62.6 °F 48.2 °F 59% 30.16 in 10.0 mi Calm Calm - N/A   Clear
7:15 AM 66.2 °F 48.2 °F 52% 30.16 in 10.0 mi Calm Calm - N/A   Clear
7:35 AM 68.0 °F 48.2 °F 49% 30.16 in 10.0 mi Calm Calm - N/A   Clear
7:55 AM 68.0 °F 51.8 °F 56% 30.16 in 10.0 mi Calm Calm - N/A   Clear
8:15 AM 71.6 °F 46.4 °F 41% 30.16 in 10.0 mi Calm Calm - N/A   Clear
8:35 AM 73.4 °F 46.4 °F 38% 30.16 in 10.0 mi Calm Calm - N/A   Clear
8:55 AM 75.2 °F 46.4 °F 36% 30.16 in 10.0 mi Calm Calm - N/A   Clear
9:15 AM 77.0 °F 41.0 °F 28% 30.16 in 10.0 mi Calm Calm - N/A   Clear
9:35 AM 80.6 °F 41.0 °F 24% 30.15 in 10.0 mi Calm Calm - N/A   Clear
9:55 AM 80.6 °F 37.4 °F 21% 30.14 in 10.0 mi SE 4.6 mph - N/A   Clear
10:15 AM 82.4 °F 39.2 °F 21% 30.14 in 10.0 mi SE 5.8 mph - N/A   Clear
10:35 AM 82.4 °F 41.0 °F 23% 30.14 in 10.0 mi East 4.6 mph - N/A   Clear
10:55 AM 84.2 °F 41.0 °F 22% 30.13 in 10.0 mi Calm Calm - N/A   Clear
11:15 AM 84.2 °F 39.2 °F 20% 30.13 in 10.0 mi Calm Calm - N/A   Clear
11:35 AM 86.0 °F 39.2 °F 19% 30.12 in 10.0 mi ENE 3.5 mph - N/A   Clear
11:55 AM 87.8 °F 35.6 °F 16% 30.12 in 10.0 mi ESE 5.8 mph - N/A   Clear
12:15 PM 89.6 °F 35.6 °F 15% 30.11 in 10.0 mi Calm Calm - N/A   Clear
12:35 PM 89.6 °F 35.6 °F 15% 30.11 in 10.0 mi Calm Calm - N/A   Clear
12:55 PM 91.4 °F 35.6 °F 14% 30.10 in 10.0 mi East 5.8 mph - N/A   Clear
1:15 PM 91.4 °F 35.6 °F 14% 30.09 in 10.0 mi Calm Calm - N/A   Clear
1:35 PM 93.2 °F 35.6 °F 13% 30.09 in 10.0 mi SE 6.9 mph - N/A   Clear
1:55 PM 93.2 °F 35.6 °F 13% 30.08 in 10.0 mi ESE 9.2 mph - N/A   Clear
2:15 PM 93.2 °F 35.6 °F 13% 30.07 in 10.0 mi ESE 9.2 mph - N/A   Clear
2:35 PM 93.2 °F 35.6 °F 13% 30.07 in 10.0 mi ESE 13.8 mph - N/A   Clear
2:55 PM 95.0 °F 33.8 °F 12% 30.06 in 10.0 mi SW 9.2 mph 25.3 mph N/A   Clear
3:15 PM 96.8 °F 33.8 °F 11% 30.06 in 10.0 mi WSW 15.0 mph 20.7 mph N/A   Clear
3:35 PM 95.0 °F 35.6 °F 12% 30.06 in 10.0 mi West 5.8 mph - N/A   Clear
3:55 PM 95.0 °F 39.2 °F 14% 30.05 in 10.0 mi West 8.1 mph 18.4 mph N/A   Clear
4:15 PM 95.0 °F 39.2 °F 14% 30.05 in 10.0 mi West 10.4 mph 18.4 mph N/A   Clear
4:35 PM 95.0 °F 42.8 °F 16% 30.05 in 10.0 mi WNW 13.8 mph 19.6 mph N/A   Scattered Clouds
4:55 PM 95.0 °F 44.6 °F 18% 30.04 in 10.0 mi NW 13.8 mph 20.7 mph N/A   Partly Cloudy
5:15 PM 95.0 °F 44.6 °F 18% 30.05 in 10.0 mi West 18.4 mph 21.9 mph N/A   Clear
5:35 PM 93.2 °F 42.8 °F 17% 30.05 in 10.0 mi West 17.3 mph 26.5 mph N/A   Clear
5:55 PM 93.2 °F 42.8 °F 17% 30.05 in 10.0 mi West 18.4 mph 23.0 mph N/A   Clear
6:15 PM 93.2 °F 41.0 °F 16% 30.05 in 10.0 mi West 15.0 mph 23.0 mph N/A   Clear
6:35 PM 91.4 °F 39.2 °F 16% 30.06 in 10.0 mi WSW 13.8 mph 20.7 mph N/A   Clear
6:55 PM 91.4 °F 37.4 °F 15% 30.06 in 10.0 mi WSW 12.7 mph - N/A   Clear
7:15 PM 89.6 °F 37.4 °F 16% 30.06 in 10.0 mi WSW 17.3 mph - N/A   Clear
7:35 PM 89.6 °F 37.4 °F 16% 30.06 in 10.0 mi West 16.1 mph 19.6 mph N/A   Clear
7:55 PM 87.8 °F 39.2 °F 18% 30.07 in 10.0 mi WSW 11.5 mph 16.1 mph N/A   Clear
8:15 PM 86.0 °F 41.0 °F 20% 30.07 in 10.0 mi WSW 9.2 mph - N/A   Clear
8:35 PM 82.4 °F 42.8 °F 25% 30.09 in 10.0 mi North 6.9 mph - N/A   Clear
8:55 PM 80.6 °F 44.6 °F 28% 30.09 in 10.0 mi NNW 6.9 mph - N/A   Clear
9:15 PM 80.6 °F 44.6 °F 28% 30.10 in 10.0 mi WNW 9.2 mph - N/A   Clear
9:35 PM 80.6 °F 46.4 °F 30% 30.11 in 10.0 mi West 10.4 mph - N/A   Clear
9:55 PM 77.0 °F 46.4 °F 34% 30.11 in 10.0 mi West 5.8 mph - N/A   Clear
10:15 PM 75.2 °F 46.4 °F 36% 30.12 in 10.0 mi WSW 6.9 mph - N/A   Clear
10:35 PM 75.2 °F 46.4 °F 36% 30.12 in 10.0 mi West 11.5 mph - N/A   Clear
10:55 PM 75.2 °F 46.4 °F 36% 30.12 in 10.0 mi West 9.2 mph - N/A   Clear
11:15 PM 73.4 °F 46.4 °F 38% 30.12 in 10.0 mi WSW 11.5 mph - N/A   Clear
11:35 PM 75.2 °F 44.6 °F 34% 30.12 in 10.0 mi West 10.4 mph - N/A   Clear
11:55 PM 73.4 °F 46.4 °F 38% 30.13 in 10.0 mi NNW 3.5 mph - N/A   Clear